Find Starlink 37571

NORAD ID: 69043 Int'l Des: 2026-101 Owner: SPXS Country: US Constellation: starlink operational
LEOCIRCULARRETROGRADE

当前视图

正在加载3D地球...

About Starlink 37571

Starlink 37571 (NORAD 69043) is a starlink constellation satellite (v2 mini) launched May 6, 2026 by SPXS of US. It operates in LEO, CIRCULAR, RETROGRADE orbit with a mass of 575.00 kg.

即将过境

Passes for default location (London). Set your location on the main map for personalized predictions.

高度历史

Loading altitude history...

两行轨道根数

1 69043U 26101U 26235.86615355 .00011578 00000-0 36031-3 0 9997
2 69043 97.2851 89.7390 0001622 94.7006 265.4422 15.33454076 16942
Epoch: Aug 23, 2026 • Age: 9 hours

当前状态

高度 470.3 km
远地点 / 近地点 N/A
速度 7.63 km/s
星下点 -8.40°S, 26.44°E
发射日期 May 6, 2026
运行时间 0.3 years
类型 internet

技术详情

分类 Payload
质量 575.00 kg
干质量 530.00 kg
总质量 575.00 kg
长度 0.30 m
直径 4.10 m
跨度 29.00 m
形状 Box + pan
制造商 SPXS
平台类型 Starlink V2MO
阶段状态 In Orbit
所有者/国家 SPXS/US

Most Searched